ProjectID,Date,Electric Generation,Electric Utility Import,Facility Electric Load
,YYYY-MM-DD,kW,kW,kW
88,2011-07-01,0.0,,0.0
88,2011-07-02,0.0,,0.0
88,2011-07-03,0.0,,0.0
88,2011-07-04,0.0,,0.0
88,2011-07-05,0.0,0.0,0.0
88,2011-07-06,0.0,0.0,0.0
88,2011-07-07,0.0,0.0,0.0
88,2011-07-08,0.0,0.0,0.0
88,2011-07-09,0.0,0.0,0.0
88,2011-07-10,0.0,0.0,0.0
88,2011-07-11,0.0,0.0,0.0
88,2011-07-12,0.0,0.0,0.0
88,2011-07-13,0.0,0.0,0.0
88,2011-07-14,0.0,0.0,0.0
88,2011-07-15,0.0,0.0,0.0
88,2011-07-16,0.0,0.0,0.0
88,2011-07-17,0.0,0.0,0.0
88,2011-07-18,0.0,0.0,0.0
88,2011-07-19,0.0,0.0,0.0
88,2011-07-20,0.0,0.0,0.0
88,2011-07-21,0.0,0.0,0.0
88,2011-07-22,0.0,0.0,0.0
88,2011-07-23,0.0,0.0,0.0
88,2011-07-24,0.0,0.0,0.0
88,2011-07-25,0.0,0.0,0.0
88,2011-07-26,0.0,0.0,0.0
88,2011-07-27,0.0,0.0,0.0
88,2011-07-28,0.0,0.0,0.0
88,2011-07-29,0.0,0.0,0.0
88,2011-07-30,0.0,0.0,0.0
88,2011-07-31,0.0,0.0,0.0
88,2011-08-01,0.0,0.0,0.0
88,2011-08-02,0.0,0.0,0.0
88,2011-08-03,0.0,0.0,0.0
88,2011-08-04,0.0,0.0,0.0
88,2011-08-05,0.0,0.0,0.0
88,2011-08-06,0.0,0.0,0.0
88,2011-08-07,0.0,0.0,0.0
88,2011-08-08,0.0,0.0,0.0
88,2011-08-09,0.0,0.0,0.0
88,2011-08-10,0.0,0.0,0.0
88,2011-08-11,0.0,0.0,0.0
88,2011-08-12,0.0,0.0,0.0
88,2011-08-13,0.0,0.0,0.0
88,2011-08-14,0.0,0.0,0.0
88,2011-08-15,0.0,0.0,0.0
88,2011-08-16,0.0,0.0,0.0
88,2011-08-17,0.0,0.0,0.0
88,2011-08-18,0.0,0.0,0.0
88,2011-08-19,0.0,0.0,0.0
88,2011-08-20,0.0,0.0,0.0
88,2011-08-21,0.0,0.0,0.0
88,2011-08-22,0.0,0.0,0.0
88,2011-08-23,0.0,0.0,0.0
88,2011-08-24,0.0,0.0,0.0
88,2011-08-25,0.0,0.0,0.0
88,2011-08-26,0.0,0.0,0.0
88,2011-08-27,0.0,0.0,0.0
88,2011-08-28,0.0,0.0,0.0
88,2011-08-29,0.0,0.0,0.0
88,2011-08-30,0.0,0.0,0.0
88,2011-08-31,0.0,0.0,0.0
88,2011-09-01,0.0,0.0,0.0
88,2011-09-02,0.0,0.0,0.0
88,2011-09-03,0.0,0.0,0.0
88,2011-09-04,0.0,0.0,0.0
88,2011-09-05,0.0,0.0,0.0
88,2011-09-06,0.0,0.0,0.0
88,2011-09-07,0.0,0.0,0.0
88,2011-09-08,0.0,0.0,0.0
88,2011-09-09,0.0,0.0,0.0
88,2011-09-10,0.0,0.0,0.0
88,2011-09-11,0.0,0.0,0.0
88,2011-09-12,0.0,0.0,0.0
88,2011-09-13,0.0,0.0,0.0
88,2011-09-14,0.0,0.0,0.0
88,2011-09-15,0.0,0.0,0.0
88,2011-09-16,0.0,0.0,0.0
88,2011-09-17,0.0,0.0,0.0
88,2011-09-18,0.0,0.0,0.0
88,2011-09-19,0.0,0.0,0.0
88,2011-09-20,0.0,0.0,0.0
88,2011-09-21,0.0,0.0,0.0
88,2011-09-22,0.0,0.0,0.0
88,2011-09-23,0.0,0.0,0.0
88,2011-09-24,0.0,0.0,0.0
88,2011-09-25,0.0,0.0,0.0
88,2011-09-26,0.0,0.0,0.0
88,2011-09-27,0.0,0.0,0.0
88,2011-09-28,0.0,0.0,0.0
88,2011-09-29,0.0,0.0,0.0
88,2011-09-30,0.0,0.0,0.0
88,2011-10-01,0.0,0.0,0.0
88,2011-10-02,0.0,0.0,0.0
88,2011-10-03,0.0,0.0,0.0
88,2011-10-04,0.0,0.0,0.0
88,2011-10-05,0.0,,0.0
88,2011-10-06,0.0,,0.0
88,2011-10-07,0.0,,0.0
88,2011-10-08,0.0,,0.0
88,2011-10-09,0.0,,0.0
88,2011-10-10,0.0,,0.0
88,2011-10-11,0.0,,0.0
88,2011-10-12,0.0,,0.0
88,2011-10-13,0.0,,0.0
88,2011-10-14,0.0,0.0,0.0
88,2011-10-15,0.0,0.0,0.0
88,2011-10-16,0.0,0.0,0.0
88,2011-10-17,0.0,0.0,0.0
88,2011-10-18,0.0,,0.0
88,2011-10-19,0.0,,0.0
88,2011-10-20,0.0,,0.0
88,2011-10-21,0.0,,0.0
88,2011-10-22,0.0,,0.0
88,2011-10-23,0.0,,0.0
88,2011-10-24,0.0,,0.0
88,2011-10-25,0.0,,0.0
88,2011-10-26,0.0,,0.0
88,2011-10-27,0.0,,0.0
88,2011-10-28,0.0,,0.0
88,2011-10-29,0.0,,0.0
88,2011-10-30,0.0,,0.0
88,2011-10-31,0.0,,0.0
88,2011-11-01,0.0,,0.0
88,2011-11-02,0.0,,0.0
88,2011-11-03,0.0,,0.0
88,2011-11-04,0.0,,0.0
88,2011-11-05,0.0,,0.0
88,2011-11-06,0.0,,0.0
88,2011-11-07,0.0,,0.0
88,2011-11-08,0.0,0.0,0.0
88,2011-11-09,0.0,0.0,0.0
88,2011-11-10,0.0,0.0,0.0
88,2011-11-11,0.0,0.0,0.0
88,2011-11-12,0.0,0.0,0.0
88,2011-11-13,0.0,0.0,0.0
88,2011-11-14,-0.07708333333333334,0.0,-0.07708333333333334
88,2011-11-15,0.0,0.0,0.0
88,2011-11-16,0.0,0.0,0.0
88,2011-11-17,0.0,0.0,0.0
88,2011-11-18,0.0,0.0,0.0
88,2011-11-19,0.0,,0.0
88,2011-11-20,0.0,,0.0
88,2011-11-21,0.0,,0.0
88,2011-11-22,0.0,,0.0
88,2011-11-23,0.0,,0.0
88,2011-11-24,0.0,,0.0
88,2011-11-25,0.0,,0.0
88,2011-11-26,0.0,,0.0
88,2011-11-27,0.0,,0.0
88,2011-11-28,0.0,0.0,0.0
88,2011-11-29,0.0,0.0,0.0
88,2011-11-30,0.0,0.0,0.0
88,2011-12-01,0.0,0.0,0.0
88,2011-12-02,0.0,0.0,0.0
88,2011-12-03,0.0,0.0,0.0
88,2011-12-04,0.0,0.0,0.0
88,2011-12-05,0.0,0.0,0.0
88,2011-12-06,0.0,0.0,0.0
88,2011-12-07,0.0775,743.379625,743.457125
88,2011-12-08,0.0,1234.9665416666667,1234.9665416666667
88,2011-12-09,0.0,1222.8750416666667,1222.8750416666667
88,2011-12-10,0.0,1132.19175,1132.19175
88,2011-12-11,0.0,1115.9166666666667,1115.9166666666667
88,2011-12-12,0.0,1223.125,1223.125
88,2011-12-13,0.0,1230.125,1230.125
88,2011-12-14,0.0,1222.8791666666666,1222.8791666666666
88,2011-12-15,0.0,1204.1875416666667,1204.1875416666667
88,2011-12-16,0.0,1211.5,1211.5
88,2011-12-17,0.0,1105.0,1105.0
88,2011-12-18,0.0,1082.6666666666667,1082.6666666666667
88,2011-12-19,0.0,1197.3333333333333,1197.3333333333333
88,2011-12-20,0.0,1209.0,1209.0
88,2011-12-21,0.0,1195.375,1195.375
88,2011-12-22,0.0,1197.375,1197.375
88,2011-12-23,0.0,1185.25,1185.25
88,2011-12-24,0.0,1090.75,1090.75
88,2011-12-25,0.0,1067.875,1067.875
88,2011-12-26,0.0,1096.5833333333333,1096.5833333333333
88,2011-12-27,0.0,1188.8333333333333,1188.8333333333333
88,2011-12-28,0.0,1196.5833333333333,1196.5833333333333
88,2011-12-29,0.0,1197.9583333333333,1197.9583333333333
88,2011-12-30,0.0,1193.25,1193.25
88,2011-12-31,0.0,1086.25,1086.25
88,2012-01-01,0.0,1036.4583333333333,1036.4583333333333
88,2012-01-02,0.0,1100.625,1100.625
88,2012-01-03,0.0,1225.4166666666667,1225.4166666666667
88,2012-01-04,0.0,1237.375,1237.375
88,2012-01-05,0.0,1235.3333333333333,1235.3333333333333
88,2012-01-06,0.0,1216.7916666666667,1216.7916666666667
88,2012-01-07,0.0,1109.4166666666667,1109.4166666666667
88,2012-01-08,0.0,1116.875,1116.875
88,2012-01-09,0.0,1221.5,1221.5
88,2012-01-10,0.0,1218.2083333333333,1218.2083333333333
88,2012-01-11,0.0,1216.6666666666667,1216.6666666666667
88,2012-01-12,0.0,1223.7458333333334,1223.7458333333334
88,2012-01-13,0.0,1226.7912916666667,1226.7912916666667
88,2012-01-14,0.0,1098.5624166666666,1098.5624166666666
88,2012-01-15,0.0,1120.2041666666667,1120.2041666666667
88,2012-01-16,0.0,1218.3417916666667,1218.3417916666667
88,2012-01-17,3.5583333333333336,1212.7916666666667,1216.3500000000001
88,2012-01-18,59.62041666666667,1129.6542083333334,1189.274625
88,2012-01-19,192.68916666666667,1058.9000416666665,1251.5892083333333
88,2012-01-20,8.51,1129.5540833333332,1138.0640833333332
88,2012-01-21,0.0,1092.7916666666667,1092.7916666666667
88,2012-01-22,0.0,1088.1666666666667,1088.1666666666667
88,2012-01-23,0.0,1220.6666666666667,1220.6666666666667
88,2012-01-24,0.0,1207.8333333333333,1207.8333333333333
88,2012-01-25,0.0,1217.6666666666667,1217.6666666666667
88,2012-01-26,0.0,1224.5416666666667,1224.5416666666667
88,2012-01-27,0.0,1215.6666666666667,1215.6666666666667
88,2012-01-28,0.0,1112.0416666666667,1112.0416666666667
88,2012-01-29,0.0,1107.3333333333333,1107.3333333333333
88,2012-01-30,0.0,1229.0833333333333,1229.0833333333333
88,2012-01-31,504.1082916666667,889.4791666666666,1393.5874583333334
88,2012-02-01,66.96249999999999,1165.2791666666667,1232.2416666666668
88,2012-02-02,717.3123333333333,564.879125,1282.1914583333332
88,2012-02-03,582.2250833333334,691.25,1273.4750833333333
88,2012-02-04,0.0,1124.0833333333333,1124.0833333333333
88,2012-02-05,0.0,1111.5416666666667,1111.5416666666667
88,2012-02-06,907.2042499999999,418.2916666666667,1325.4959166666665
88,2012-02-07,864.6373333333332,431.4166666666667,1296.0539999999999
88,2012-02-08,509.9583333333333,743.2916666666666,1253.25
88,2012-02-09,0.0,1230.7083333333333,1230.7083333333333
88,2012-02-10,0.0,1224.3333333333333,1224.3333333333333
88,2012-02-11,0.0,1106.3333333333333,1106.3333333333333
88,2012-02-12,0.0,1105.0416666666667,1105.0416666666667
88,2012-02-13,0.0,1237.0416666666667,1237.0416666666667
88,2012-02-14,0.0,1224.375,1224.375
88,2012-02-15,0.0,1216.9166666666667,1216.9166666666667
88,2012-02-16,0.0,1232.0,1232.0
88,2012-02-17,0.0,1210.1666666666667,1210.1666666666667
88,2012-02-18,0.0,1118.2083333333333,1118.2083333333333
88,2012-02-19,0.0,1109.6666666666667,1109.6666666666667
88,2012-02-20,742.7916666666666,555.8416666666667,1298.6333333333332
88,2012-02-21,874.7083333333334,422.3829166666667,1297.09125
88,2012-02-22,894.2083333333334,416.63754166666666,1310.845875
88,2012-02-23,899.2916666666666,428.8749583333333,1328.1666249999998
88,2012-02-24,896.0833333333334,426.95004166666666,1323.033375
88,2012-02-25,0.0,1114.5749583333334,1114.5749583333334
88,2012-02-26,0.0,1097.56675,1097.56675
88,2012-02-27,905.4166666666666,409.125,1314.5416666666665
88,2012-02-28,904.5416666666666,427.4583333333333,1332.0
88,2012-02-29,905.75,419.625,1325.375
88,2012-03-01,898.7916666666666,425.0833333333333,1323.875
88,2012-03-02,900.2916666666666,422.4583333333333,1322.75
88,2012-03-03,0.0,1103.3333333333333,1103.3333333333333
88,2012-03-04,0.0,1079.5707916666668,1079.5707916666668
88,2012-03-05,0.0,1197.2916666666667,1197.2916666666667
88,2012-03-06,0.0,1211.5833333333333,1211.5833333333333
88,2012-03-07,0.0,1230.5,1230.5
88,2012-03-08,223.58333333333334,1007.758125,1231.3414583333333
88,2012-03-09,0.0,1209.4121666666667,1209.4121666666667
88,2012-03-10,0.0,1128.2870833333334,1128.2870833333334
88,2012-03-11,0.0,1105.0413333333333,1105.0413333333333
88,2012-03-12,0.0,1400.4955,1400.4955
88,2012-03-13,0.0,1484.358,1484.358
88,2012-03-14,0.0,1277.4955,1277.4955
88,2012-03-15,0.0,1204.9121666666667,1204.9121666666667
88,2012-03-16,0.0,1221.2496666666666,1221.2496666666666
88,2012-03-17,0.0,1224.0370833333334,1224.0370833333334
88,2012-03-18,0.0,1345.1205,1345.1205
88,2012-03-19,0.0,1601.4955,1601.4955
88,2012-03-20,527.2916666666666,1059.3746666666666,1586.6663333333331
88,2012-03-21,808.125,764.0371666666666,1572.1621666666665
88,2012-03-22,1251.4583333333333,579.5788333333334,1831.0371666666665
88,2012-03-23,1251.0,610.4954166666666,1861.4954166666666
88,2012-03-24,0.0,1182.9579999999999,1182.9579999999999
88,2012-03-25,0.0,1050.9955,1050.9955
88,2012-03-26,928.875,410.7871666666667,1339.6621666666667
88,2012-03-27,897.4166666666666,432.5788333333333,1329.9955
88,2012-03-28,900.0416666666666,460.8705,1360.9121666666665
88,2012-03-29,902.5833333333334,424.74966666666666,1327.333
88,2012-03-30,887.7083333333334,432.62041666666664,1320.3287500000001
88,2012-03-31,0.0,1120.2455,1120.2455
88,2012-04-01,0.0,1096.8288333333333,1096.8288333333333
88,2012-04-02,890.75,417.833,1308.583
88,2012-04-03,877.5833333333334,427.07054166666666,1304.653875
88,2012-04-04,851.4583333333334,443.1120416666667,1294.570375
88,2012-04-05,875.9166666666666,421.333,1297.2496666666666
88,2012-04-06,325.7083333333333,819.8705,1145.5788333333333
88,2012-04-07,0.0,1130.9538333333333,1130.9538333333333
88,2012-04-08,0.0,1138.750125,1138.750125
88,2012-04-09,879.2083333333334,410.5649166666667,1289.7732500000002
88,2012-04-10,881.6666666666666,424.3831666666667,1306.0498333333333
88,2012-04-11,887.375,410.8039583333329,1298.178958333333
88,2012-04-12,891.375,431.96233333333333,1323.3373333333334
88,2012-04-13,887.2083333333334,473.391625,1360.5999583333332
88,2012-04-14,0.0,1318.2957916666667,1318.2957916666667
88,2012-04-15,0.0,1439.379,1439.379
88,2012-04-16,806.5833333333334,888.4955,1695.0788333333335
88,2012-04-17,899.9166666666666,541.70375,1441.6204166666666
88,2012-04-18,885.7083333333334,430.7455,1316.4538333333335
88,2012-04-19,899.7916666666666,539.7496666666667,1439.5413333333333
88,2012-04-20,924.0,626.0788333333334,1550.0788333333335
88,2012-04-21,0.0,1225.0371666666667,1225.0371666666667
88,2012-04-22,0.0,1082.3288333333333,1082.3288333333333
88,2012-04-23,897.625,409.87466666666666,1307.4996666666666
88,2012-04-24,898.0,416.95374999999996,1314.95375
88,2012-04-25,882.0,408.9954999999996,1290.9954999999995
88,2012-04-26,891.7916666666666,443.9538333333333,1335.7455
88,2012-04-27,907.875,414.8288333333333,1322.7038333333333
88,2012-04-28,0.0,1100.6246666666666,1100.6246666666666
88,2012-04-29,0.0,1082.4538333333333,1082.4538333333333
88,2012-04-30,890.7083333333334,469.1620833333333,1359.8704166666666
88,2012-05-01,896.0416666666666,436.7455,1332.7871666666665
88,2012-05-02,881.7279166666667,492.04133333333334,1373.76925
88,2012-05-03,973.6371250000001,556.3288333333334,1529.9659583333334
88,2012-05-04,903.6207916666667,698.1205,1601.7412916666667
88,2012-05-05,0.0,1392.2455,1392.2455
88,2012-05-06,0.0,1285.8704166666666,1285.8704166666666
88,2012-05-07,897.7082083333333,565.708,1463.4162083333333
88,2012-05-08,885.4335833333333,552.9955,1438.4290833333334
88,2012-05-09,896.97075,628.2871666666666,1525.2579166666665
88,2012-05-10,852.1666666666666,475.9538333333333,1328.1205
88,2012-05-11,865.625,468.12466666666666,1333.7496666666666
88,2012-05-12,0.0,1339.6621666666667,1339.6621666666667
88,2012-05-13,0.0,1421.8704166666666,1421.8704166666666
88,2012-05-14,896.0833333333334,678.6205,1574.7038333333335
88,2012-05-15,898.2083333333334,711.083,1609.2913333333333
88,2012-05-16,946.1666666666666,635.1621666666666,1581.3288333333333
88,2012-05-17,887.3333333333334,518.2455,1405.5788333333335
88,2012-05-18,900.5833333333334,555.7455,1456.3288333333335
88,2012-05-19,0.0,1445.7454166666666,1445.7454166666666
88,2012-05-20,0.0,1527.74575,1527.74575
88,2012-05-21,902.125,750.875,1653.0
88,2012-05-22,901.9166666666666,813.875,1715.7916666666665
88,2012-05-23,902.4166666666666,800.5416666666666,1702.9583333333333
88,2012-05-24,900.5416666666666,830.6666666666666,1731.2083333333333
88,2012-05-25,968.6666666666666,814.2916666666666,1782.9583333333333
88,2012-05-26,0.0,1577.9583333333333,1577.9583333333333
88,2012-05-27,0.0,1524.2083333333333,1524.2083333333333
88,2012-05-28,901.4166666666666,770.875,1672.2916666666665
88,2012-05-29,970.9166666666666,1012.4583333333334,1983.375
88,2012-05-30,900.25,785.2916666666666,1685.5416666666665
88,2012-05-31,900.1666666666666,641.125,1541.2916666666665
88,2012-06-01,909.1666666666666,537.3650416666667,1446.5317083333334
88,2012-06-02,0.0,1363.3916666666667,1363.3916666666667
88,2012-06-03,0.0,1291.466625,1291.466625
88,2012-06-04,886.625,486.49579166666666,1373.1207916666667
88,2012-06-05,873.875,538.4209166666667,1412.2959166666667
88,2012-06-06,900.1666666666666,515.625,1415.7916666666665
88,2012-06-07,903.5,557.875,1461.375
88,2012-06-08,909.75,616.5416666666666,1526.2916666666665
88,2012-06-09,0.0,1480.4166666666667,1480.4166666666667
88,2012-06-10,0.0,1593.0,1593.0
88,2012-06-11,1001.0833333333334,831.1666666666666,1832.25
88,2012-06-12,906.9583333333334,783.875,1690.8333333333335
88,2012-06-13,906.875,646.4583333333334,1553.3333333333335
88,2012-06-14,906.2083333333334,625.9166666666666,1532.125
88,2012-06-15,863.875,695.125,1559.0
88,2012-06-16,0.0,1552.625,1552.625
88,2012-06-17,0.0,1540.0,1540.0
88,2012-06-18,906.3333333333334,710.875,1617.2083333333335
88,2012-06-19,1.2916666666666667,1834.2916666666667,1835.5833333333335
88,2012-06-20,0.0,2015.3333333333333,2015.3333333333333
88,2012-06-21,536.6666666666666,1435.3333333333333,1972.0
88,2012-06-22,902.4583333333334,857.875,1760.3333333333335
88,2012-06-23,0.0,1477.2313125,1477.2313125
88,2012-06-24,0.0,,0.0
88,2012-06-25,893.75,403.29394444444443,1297.0439444444444
88,2012-06-26,906.375,591.6246666666667,1497.9996666666666
88,2012-06-27,906.2916666666666,651.07875,1557.3704166666666
88,2012-06-28,893.0,795.4954166666666,1688.4954166666666
88,2012-06-29,905.9583333333334,895.9124166666667,1801.87075
88,2012-06-30,0.0,1658.2205416666666,1658.2205416666666
88,2012-07-01,0.0,1664.6666666666667,1664.6666666666667
88,2012-07-02,0.0,1749.4583333333333,1749.4583333333333
88,2012-07-03,1.375,1766.0,1767.375
88,2012-07-04,0.0,1814.125,1814.125
88,2012-07-05,0.0,1820.125,1820.125
88,2012-07-06,0.0,1843.0416666666667,1843.0416666666667
88,2012-07-07,0.0,1623.9166666666667,1623.9166666666667
88,2012-07-08,0.0,1598.5833333333333,1598.5833333333333
88,2012-07-09,0.0,1639.2083333333333,1639.2083333333333
88,2012-07-10,0.0,1659.9166666666667,1659.9166666666667
88,2012-07-11,52.583333333333336,1660.7916666666667,1713.375
88,2012-07-12,1210.7916666666667,692.625,1903.4166666666667
88,2012-07-13,1253.625,691.0,1944.625
88,2012-07-14,0.0,1773.4166666666667,1773.4166666666667
88,2012-07-15,0.0,1775.5,1775.5
88,2012-07-16,1011.7083333333334,907.125,1918.8333333333335
88,2012-07-17,906.0833333333334,1076.0416666666667,1982.125
88,2012-07-18,909.7916666666666,1015.9166666666666,1925.7083333333333
88,2012-07-19,880.5579166666666,808.3333333333334,1688.8912500000001
88,2012-07-20,909.5165833333334,738.5229166666667,1648.0395
88,2012-07-21,0.0,1558.990125,1558.990125
88,2012-07-22,0.0,1614.0208333333333,1614.0208333333333
88,2012-07-23,890.6999166666666,1008.4332083333334,1899.1331249999998
88,2012-07-24,896.6583333333333,945.375,1842.0333333333333
88,2012-07-25,894.0335416666667,738.4166666666666,1632.4502083333332
88,2012-07-26,1064.3665416666665,788.5416666666666,1852.9082083333333
88,2012-07-27,896.5,888.1666666666666,1784.6666666666665
88,2012-07-28,0.0,1623.0833333333333,1623.0833333333333
88,2012-07-29,0.0,1616.2916666666667,1616.2916666666667
88,2012-07-30,903.1666666666666,840.0,1743.1666666666665
88,2012-07-31,954.9166666666666,890.0416666666666,1844.9583333333333
88,2012-08-01,896.8333333333334,865.0,1761.8333333333335
88,2012-08-02,898.375,879.4166666666666,1777.7916666666665
88,2012-08-03,691.9166666666666,1214.5833333333333,1906.5
88,2012-08-04,0.0,1849.0833333333333,1849.0833333333333
88,2012-08-05,0.0,1843.6666666666667,1843.6666666666667
88,2012-08-06,908.2083333333334,796.6666666666666,1704.875
88,2012-08-07,541.0416666666666,1161.0833333333333,1702.125
88,2012-08-08,983.7083333333334,847.75,1831.4583333333335
88,2012-08-09,1035.1666666666667,908.5,1943.6666666666667
88,2012-08-10,907.7083333333334,917.5416666666666,1825.25
88,2012-08-11,0.0,1714.875,1714.875
88,2012-08-12,0.0,1614.3333333333333,1614.3333333333333
88,2012-08-13,907.0416666666666,809.375,1716.4166666666665
88,2012-08-14,906.875,823.6666666666666,1730.5416666666665
88,2012-08-15,907.2083333333334,823.0416666666666,1730.25
88,2012-08-16,907.9583333333334,821.4166666666666,1729.375
88,2012-08-17,904.9166666666666,794.5833333333334,1699.5
88,2012-08-18,0.0,1501.4583333333333,1501.4583333333333
88,2012-08-19,0.0,1401.7916666666667,1401.7916666666667
88,2012-08-20,896.4583333333334,699.8333333333334,1596.2916666666667
88,2012-08-21,901.2916666666666,665.9166666666666,1567.2083333333333
88,2012-08-22,901.8333333333334,673.0833333333334,1574.9166666666667
88,2012-08-23,908.0,743.7916666666666,1651.7916666666665
88,2012-08-24,902.8333333333334,764.2083333333334,1667.0416666666667
88,2012-08-25,0.0,1622.5,1622.5
88,2012-08-26,0.0,1671.9166666666667,1671.9166666666667
88,2012-08-27,901.9166666666666,869.8104166666667,1771.7270833333332
88,2012-08-28,901.0416666666666,831.8982916666668,1732.9399583333334
88,2012-08-29,901.9583333333334,621.4749583333333,1523.4332916666667
88,2012-08-30,893.0416666666666,640.9959166666666,1534.0375833333333
88,2012-08-31,902.75,806.6125000000001,1709.3625000000002
88,2012-09-01,0.0,1596.1459166666666,1596.1459166666666
88,2012-09-02,0.0,1505.5833333333333,1505.5833333333333
88,2012-09-03,0.0,1553.0,1553.0
88,2012-09-04,1188.0833333333333,696.4166666666666,1884.5
88,2012-09-05,902.2083333333334,830.0416666666666,1732.25
88,2012-09-06,1191.5,699.5833333333334,1891.0833333333335
88,2012-09-07,1112.3333333333333,731.7083333333334,1844.0416666666665
88,2012-09-08,0.0,1564.4166666666667,1564.4166666666667
88,2012-09-09,0.0,1418.5416666666667,1418.5416666666667
88,2012-09-10,897.125,536.6666666666666,1433.7916666666665
88,2012-09-11,901.3333333333334,494.1666666666667,1395.5
88,2012-09-12,899.8333333333334,581.6666666666666,1481.5
88,2012-09-13,901.25,715.9166666666666,1617.1666666666665
88,2012-09-14,903.0,731.5416666666666,1634.5416666666665
88,2012-09-15,0.0,1397.4583333333333,1397.4583333333333
88,2012-09-16,0.0,1290.5,1290.5
88,2012-09-17,885.2083333333334,564.0,1449.2083333333335
88,2012-09-18,1076.875,603.0416666666666,1679.9166666666665
88,2012-09-19,1338.375,353.2083333333333,1691.5833333333333
88,2012-09-20,902.4583333333334,472.7083333333333,1375.1666666666667
88,2012-09-21,888.1687499999999,581.9583333333334,1470.1270833333333
88,2012-09-22,0.0,1411.9166666666667,1411.9166666666667
88,2012-09-23,0.0,1192.0833333333333,1192.0833333333333
88,2012-09-24,890.8209166666667,423.5,1314.3209166666666
88,2012-09-25,903.6499166666667,511.75,1415.3999166666667
88,2012-09-26,1097.2958333333333,444.3333333333333,1541.6291666666666
88,2012-09-27,902.2292083333333,524.0833333333334,1426.3125416666667
88,2012-09-28,899.9583333333334,417.4583333333333,1317.4166666666667
88,2012-09-29,0.0,1261.625,1261.625
88,2012-09-30,0.0,1174.5,1174.5
88,2012-10-01,901.8333333333334,433.6666666666667,1335.5
88,2012-10-02,904.5,476.7083333333333,1381.2083333333333
88,2012-10-03,913.875,597.875,1511.75
88,2012-10-04,982.0416666666666,554.25,1536.2916666666665
88,2012-10-05,918.7916666666666,508.7916666666667,1427.5833333333333
88,2012-10-06,0.0,1291.0416666666667,1291.0416666666667
88,2012-10-07,0.0,1112.4583333333333,1112.4583333333333
88,2012-10-08,813.3333333333334,491.75,1305.0833333333335
88,2012-10-09,896.4583333333334,445.2083333333333,1341.6666666666667
88,2012-10-10,892.4583333333334,459.4583333333333,1351.9166666666667
88,2012-10-11,897.7083333333334,440.5,1338.2083333333335
88,2012-10-12,900.0833333333334,436.0416666666667,1336.125
88,2012-10-13,0.0,1129.375,1129.375
88,2012-10-14,0.0,1282.25,1282.25
88,2012-10-15,954.0416666666666,542.6666666666666,1496.7083333333333
88,2012-10-16,894.6666666666666,425.7916666666667,1320.4583333333333
88,2012-10-17,1114.9166666666667,413.5,1528.4166666666667
88,2012-10-18,1167.9583333333333,456.5416666666667,1624.5
88,2012-10-19,1223.5833333333333,507.4166666666667,1731.0
88,2012-10-20,0.0,1287.92625,1287.92625
88,2012-10-21,0.0,1244.3958333333333,1244.3958333333333
88,2012-10-22,1160.5416666666667,420.58312500000005,1581.1247916666669
88,2012-10-23,1042.2916666666667,447.9918333333333,1490.2835
88,2012-10-24,899.0416666666666,429.0625,1328.1041666666665
88,2012-10-25,1182.0,470.12079166666666,1652.1207916666667
88,2012-10-26,1271.0,557.4166666666666,1828.4166666666665
88,2012-10-27,0.0,1458.9583333333333,1458.9583333333333
88,2012-10-28,0.0,1178.2916666666667,1178.2916666666667
88,2012-10-29,1544.0833333333333,300.5416666666667,1844.625
88,2012-10-30,1842.25,130.375,1972.625
88,2012-10-31,901.25,426.625,1327.875
88,2012-11-01,905.8333333333334,424.75,1330.5833333333335
88,2012-11-02,903.0,425.6666666666667,1328.6666666666667
88,2012-11-03,0.0,1117.125,1117.125
88,2012-11-04,0.0,1140.5652173913043,1140.5652173913043
88,2012-11-05,900.7916666666666,428.0833333333333,1328.875
88,2012-11-06,898.9583333333334,425.375,1324.3333333333335
88,2012-11-07,899.75,415.7083333333333,1315.4583333333333
88,2012-11-08,899.7083333333334,425.1666666666667,1324.875
88,2012-11-09,897.7916666666666,420.7083333333333,1318.5
88,2012-11-10,0.0,1100.0416666666667,1100.0416666666667
88,2012-11-11,0.0,1258.25,1258.25
88,2012-11-12,1221.7916666666667,493.9583333333333,1715.75
88,2012-11-13,883.75,392.625,1276.375
88,2012-11-14,906.2083333333334,415.375,1321.5833333333335
88,2012-11-15,907.7083333333334,422.6666666666667,1330.375
88,2012-11-16,866.9583333333334,447.1666666666667,1314.125
88,2012-11-17,0.0,1085.4166666666667,1085.4166666666667
88,2012-11-18,0.0,1079.8333333333333,1079.8333333333333
88,2012-11-19,900.5,415.4166666666667,1315.9166666666667
88,2012-11-20,0.0,414.5833333333333,414.5833333333333